Time,TemperatureF,DewpointF,PressureIn,WindDirection,WindDirectionDegrees,WindSpeedMPH,WindSpeedGustMPH,Humidity,HourlyPrecipIn,Conditions,Clouds,dailyrainin,SoftwareType,DateUTC
2013-01-15 00:00:00,21.0,-99.9,-100.00,NNE,21,0.0,1.0,-999,-99.99,,,-99.99,,2013-01-15 07:00:00,
2013-01-15 00:02:00,22.0,-99.9,-100.00,North,0,1.0,2.0,-999,-99.99,,,-99.99,,2013-01-15 07:02:00,
2013-01-15 00:12:00,22.0,-99.9,-100.00,North,0,1.0,2.0,-999,-99.99,,,-99.99,,2013-01-15 07:12:00,
2013-01-15 00:22:00,21.0,-99.9,-100.00,NNE,15,1.0,3.0,-999,-99.99,,,-99.99,,2013-01-15 07:22:00,
2013-01-15 00:33:00,21.0,-99.9,-100.00,NNE,21,0.0,1.0,-999,-99.99,,,-99.99,,2013-01-15 07:33:00,
2013-01-15 00:43:00,21.0,-99.9,-100.00,NNE,21,0.0,1.0,-999,-99.99,,,-99.99,,2013-01-15 07:43:00,
2013-01-15 00:53:00,21.0,-99.9,-100.00,NNE,21,0.0,1.0,-999,-99.99,,,-99.99,,2013-01-15 07:53:00,
2013-01-15 03:00:00,22.0,-99.9,-100.00,NE,50,1.0,1.0,-999,-99.99,,,-99.99,,2013-01-15 10:00:00,
2013-01-15 03:33:00,22.0,-99.9,-100.00,NE,50,1.0,1.0,-999,-99.99,,,-99.99,,2013-01-15 10:33:00,
2013-01-15 03:42:00,22.0,-99.9,-100.00,NE,50,1.0,1.0,-999,-99.99,,,-99.99,,2013-01-15 10:42:00,
2013-01-15 03:52:00,22.0,-99.9,-100.00,NE,50,1.0,1.0,-999,-99.99,,,-99.99,,2013-01-15 10:52:00,
2013-01-15 04:20:00,21.0,-99.9,-100.00,SW,224,0.0,3.0,-999,-99.99,,,-99.99,,2013-01-15 11:20:00,
2013-01-15 05:03:00,21.0,-99.9,-100.00,SW,224,0.0,3.0,-999,-99.99,,,-99.99,,2013-01-15 12:03:00,
2013-01-15 05:12:00,21.0,-99.9,-100.00,SW,224,0.0,3.0,-999,-99.99,,,-99.99,,2013-01-15 12:12:00,
2013-01-15 07:33:00,19.0,-99.9,-100.00,ENE,69,0.0,1.0,-999,-99.99,,,-99.99,,2013-01-15 14:33:00,
2013-01-15 07:43:00,19.0,-99.9,-100.00,ENE,69,0.0,1.0,-999,-99.99,,,-99.99,,2013-01-15 14:43:00,
2013-01-15 07:54:00,19.0,-99.9,-100.00,ENE,69,0.0,1.0,-999,-99.99,,,-99.99,,2013-01-15 14:54:00,
2013-01-15 08:03:00,21.0,-99.9,-100.00,WSW,248,0.0,1.0,-999,-99.99,,,-99.99,,2013-01-15 15:03:00,
2013-01-15 08:10:00,37.0,-99.9,-100.00,South,175,0.0,3.0,-999,-99.99,,,-99.99,,2013-01-15 15:10:00,
2013-01-15 08:13:00,21.0,-99.9,-100.00,WSW,248,0.0,1.0,-999,-99.99,,,-99.99,,2013-01-15 15:13:00,
2013-01-15 08:23:00,21.0,-99.9,-100.00,WSW,248,0.0,1.0,-999,-99.99,,,-99.99,,2013-01-15 15:23:00,
2013-01-15 08:53:00,37.0,-99.9,-100.00,South,175,0.0,3.0,-999,-99.99,,,-99.99,,2013-01-15 15:53:00,
2013-01-15 09:03:00,37.0,-99.9,-100.00,South,175,0.0,3.0,-999,-99.99,,,-99.99,,2013-01-15 16:03:00,
2013-01-15 10:53:00,51.0,-99.9,-100.00,SE,130,0.0,3.0,-999,-99.99,,,-99.99,,2013-01-15 17:53:00,
2013-01-15 11:03:00,51.0,-99.9,-100.00,SE,130,0.0,3.0,-999,-99.99,,,-99.99,,2013-01-15 18:03:00,
2013-01-15 11:13:00,51.0,-99.9,-100.00,SE,130,0.0,3.0,-999,-99.99,,,-99.99,,2013-01-15 18:13:00,
2013-01-15 11:54:00,51.0,-99.9,-100.00,NNE,30,1.0,4.0,-999,-99.99,,,-99.99,,2013-01-15 18:54:00,
2013-01-15 12:04:00,51.0,-99.9,-100.00,ENE,59,2.0,3.0,-999,-99.99,,,-99.99,,2013-01-15 19:04:00,
2013-01-15 12:13:00,51.0,-99.9,-100.00,ENE,59,2.0,3.0,-999,-99.99,,,-99.99,,2013-01-15 19:13:00,
2013-01-15 12:23:00,51.0,-99.9,-100.00,ENE,59,2.0,3.0,-999,-99.99,,,-99.99,,2013-01-15 19:23:00,
2013-01-15 14:34:00,48.0,-99.9,-100.00,NE,41,4.0,4.0,-999,-99.99,,,-99.99,,2013-01-15 21:34:00,
2013-01-15 14:43:00,48.0,-99.9,-100.00,NE,41,4.0,4.0,-999,-99.99,,,-99.99,,2013-01-15 21:43:00,
2013-01-15 14:53:00,48.0,-99.9,-100.00,NE,38,1.0,5.0,-999,-99.99,,,-99.99,,2013-01-15 21:53:00,
2013-01-15 15:03:00,46.0,-99.9,-100.00,ENE,67,4.0,6.0,-999,-99.99,,,-99.99,,2013-01-15 22:03:00,
2013-01-15 15:13:00,46.0,-99.9,-100.00,ENE,67,4.0,6.0,-999,-99.99,,,-99.99,,2013-01-15 22:13:00,
2013-01-15 15:23:00,46.0,-99.9,-100.00,ENE,67,4.0,6.0,-999,-99.99,,,-99.99,,2013-01-15 22:23:00,
2013-01-15 15:30:00,43.0,-99.9,-100.00,ENE,59,3.0,5.0,-999,-99.99,,,-99.99,,2013-01-15 22:30:00,
2013-01-15 15:33:00,45.0,-99.9,-100.00,ENE,71,6.0,6.0,-999,-99.99,,,-99.99,,2013-01-15 22:33:00,
2013-01-15 15:43:00,45.0,-99.9,-100.00,ENE,71,6.0,6.0,-999,-99.99,,,-99.99,,2013-01-15 22:43:00,
2013-01-15 15:53:00,45.0,-99.9,-100.00,ENE,71,6.0,6.0,-999,-99.99,,,-99.99,,2013-01-15 22:53:00,
2013-01-15 16:23:00,43.0,-99.9,-100.00,ENE,59,3.0,5.0,-999,-99.99,,,-99.99,,2013-01-15 23:23:00,
2013-01-15 17:30:00,31.0,-99.9,-100.00,NE,40,1.0,4.0,-999,-99.99,,,-99.99,,2013-01-16 00:30:00,
2013-01-15 18:03:00,31.0,-99.9,-100.00,NE,40,1.0,4.0,-999,-99.99,,,-99.99,,2013-01-16 01:03:00,
2013-01-15 18:12:00,31.0,-99.9,-100.00,NE,40,1.0,4.0,-999,-99.99,,,-99.99,,2013-01-16 01:12:00,
2013-01-15 18:23:00,31.0,-99.9,-100.00,NE,40,1.0,4.0,-999,-99.99,,,-99.99,,2013-01-16 01:23:00,
2013-01-15 19:03:00,29.0,-99.9,-100.00,NNW,343,0.0,2.0,-999,-99.99,,,-99.99,,2013-01-16 02:03:00,
2013-01-15 19:12:00,29.0,-99.9,-100.00,NNW,343,0.0,2.0,-999,-99.99,,,-99.99,,2013-01-16 02:12:00,
2013-01-15 21:40:00,23.0,-99.9,-100.00,NNE,30,1.0,2.0,-999,-99.99,,,-99.99,,2013-01-16 04:40:00,
2013-01-15 22:00:00,21.0,-99.9,-100.00,NE,40,1.0,2.0,-999,-99.99,,,-99.99,,2013-01-16 05:00:00,
2013-01-15 22:04:00,23.0,-99.9,-100.00,North,4,2.0,2.0,-999,-99.99,,,-99.99,,2013-01-16 05:04:00,
2013-01-15 22:12:00,23.0,-99.9,-100.00,North,4,2.0,2.0,-999,-99.99,,,-99.99,,2013-01-16 05:12:00,
2013-01-15 22:23:00,23.0,-99.9,-100.00,NNE,30,1.0,2.0,-999,-99.99,,,-99.99,,2013-01-16 05:23:00,
2013-01-15 22:33:00,23.0,-99.9,-100.00,NNE,30,1.0,2.0,-999,-99.99,,,-99.99,,2013-01-16 05:33:00,
2013-01-15 22:53:00,21.0,-99.9,-100.00,NE,40,1.0,2.0,-999,-99.99,,,-99.99,,2013-01-16 05:53:00,
2013-01-15 23:53:00,19.0,-99.9,-100.00,North,351,0.0,1.0,-999,-99.99,,,-99.99,,2013-01-16 06:53:00,